[[{"header":{"parameterUnit":"m.s-1","parameterCategory":1,"la1":30.2991,"la2":30.254,"lo1":-89.0895,"lo2":-89.0444,"dy":0.0017,"dx":0.0017,"nx":28,"ny":28,"refTime":"2025-07-05T03:00:00:Z","depth":0,"parameterNumber":2,"parameterNumberName":"U-component_of_WINDS"},"data":[0,0,0,0,0,0,0,0,0,0,0,0,0,0,0,0,0,0,0,0,0,0,0,0,0,0,0,0,0,0,0,0,0,0,0,0,0,0,0,0,0,0,0,0,0,0,0,0,0,0,0,0,0,0,0,0,0,0,-0.2141,-0.214,0,-0.2026,-0.2025,-0.2024,-0.1957,-0.1957,-0.1957,-0.1956,-0.1834,-0.1831,-0.1829,0,0,0,0,0,0,0,0,0,0,0,0,0,-0.2298,-0.2295,-0.2141,-0.214,-0.2138,-0.2026,-0.2025,-0.2023,-0.1957,-0.1957,-0.1957,-0.1956,-0.1835,-0.1832,-0.1828,0,0,0,0,0,0,0,0,0,0,0,0,0,-0.2211,-0.2294,-0.2141,-0.2092,-0.2086,-0.2027,-0.2025,-0.2023,-0.1957,-0.1957,-0.1956,-0.1956,-0.1837,-0.1832,-0.1828,-0.1807,0,0,-0.1814,-0.1812,0,0,0,0,0,0,0,0,-0.2216,-0.2205,-0.21,-0.2095,-0.2089,-0.2006,-0.2035,-0.195,-0.1957,-0.2006,-0.1956,-0.1956,-0.1891,-0.1882,-0.1861,-0.1801,-0.1796,-0.1814,-0.1811,-0.1809,-0.1808,0,0,0,0,0,0,0,-0.2222,-0.221,-0.2095,-0.2099,-0.2092,-0.2074,-0.2061,-0.2019,-0.1952,-0.2002,-0.1997,-0.1984,-0.1888,-0.1866,-0.1858,-0.1794,-0.1814,-0.181,-0.1807,-0.1805,-0.171,-0.171,0,0,0,0,0,0,-0.2237,-0.2215,-0.2099,-0.2092,-0.2153,-0.2071,-0.2057,-0.2033,-0.1952,-0.194,-0.1985,-0.1982,-0.1874,-0.1864,-0.1854,-0.1823,-0.1809,-0.1805,-0.1802,-0.171,-0.171,-0.171,0,0,0,0,0,0,-0.224,-0.2227,-0.2104,-0.2152,-0.2135,-0.2069,-0.2042,-0.2031,-0.2008,-0.194,-0.1927,-0.1975,-0.1873,-0.186,-0.1819,-0.1818,-0.1803,-0.1798,-0.171,-0.171,-0.171,-0.1763,0,0,0,0,0,0,-0.2245,-0.2229,-0.2221,-0.2153,-0.2133,-0.2073,-0.2042,-0.2029,-0.2001,-0.1996,-0.1927,-0.1915,-0.1872,-0.1826,-0.1815,-0.1811,-0.1795,-0.1709,-0.171,-0.171,-0.1761,-0.1765,-0.1769,0,0,0,0,0,-0.2251,-0.224,-0.2221,-0.2208,-0.2123,-0.2073,-0.2061,-0.2014,-0.2002,-0.1993,-0.1948,-0.1917,-0.182,-0.1823,-0.1809,-0.1805,-0.1709,-0.171,-0.171,-0.1759,-0.1764,-0.1768,0,0,0,0,0,0,-0.2309,-0.223,-0.2209,-0.2176,-0.2132,-0.2062,-0.2049,-0.202,-0.1978,-0.1975,-0.1915,-0.19,-0.1865,-0.183,-0.1835,-0.178,-0.1761,-0.1759,-0.1803,-0.1807,-0.1811,-0.182,-0.1791,0,0,0,0,0,-0.2318,-0.2286,-0.2218,-0.2196,-0.2175,-0.2116,-0.2093,-0.206,-0.2011,-0.1992,-0.1944,-0.1897,-0.1856,-0.183,-0.1788,-0.1756,-0.1739,-0.1746,-0.175,-0.1753,-0.1751,-0.173,-0.1732,-0.1712,-0.1712,-0.1712,0,0,-0.2336,-0.2289,-0.2272,-0.2206,-0.2168,-0.2135,-0.2101,-0.2067,-0.2041,-0.1986,-0.1945,-0.1908,-0.1852,-0.1815,-0.1796,-0.1785,-0.1754,-0.1754,-0.1757,-0.1753,-0.1731,-0.1733,-0.1735,-0.1712,-0.1712,-0.1712,0,0,-0.2352,-0.2314,-0.2291,-0.2254,-0.2197,-0.2158,-0.2153,-0.2087,-0.2061,-0.2019,-0.1977,-0.1944,-0.1875,-0.1836,-0.1807,-0.1808,-0.1777,-0.1796,-0.1815,-0.1795,-0.1797,-0.1798,-0.1797,-0.1797,-0.1795,-0.1795,-0.1795,0,-0.2381,-0.2331,-0.2282,-0.225,-0.2221,-0.2172,-0.2147,-0.2113,-0.2045,-0.2025,-0.2014,-0.1926,-0.1884,-0.1837,-0.1837,-0.1816,-0.1806,-0.1803,-0.1801,-0.1801,-0.1802,-0.18,-0.18,-0.1797,-0.1797,-0.1797,-0.1797,0,-0.2368,-0.2334,-0.2321,-0.2259,-0.2229,-0.2201,-0.2146,-0.2121,-0.2091,-0.2052,-0.2009,-0.1958,-0.1904,-0.189,-0.186,-0.1838,-0.1833,-0.1812,-0.1792,-0.1807,-0.1804,-0.1803,-0.1801,-0.18,-0.1799,-0.1799,0,0,-0.2417,-0.2328,-0.2324,-0.2295,-0.2229,-0.22,-0.2169,-0.2118,-0.2097,-0.2052,-0.2023,-0.1966,-0.1946,-0.1913,-0.1878,-0.1861,-0.1863,-0.1841,-0.1839,-0.1846,-0.1834,-0.185,-0.185,-0.1842,-0.1842,-0.1842,-0.1839,0,-0.2422,-0.2366,-0.2321,-0.228,-0.2247,-0.2199,-0.2172,-0.2127,-0.2091,-0.2055,-0.2014,-0.1974,-0.1951,-0.1931,-0.1912,-0.1867,-0.1859,-0.1866,-0.1813,-0.1812,-0.1828,-0.1849,-0.1865,-0.1865,-0.1837,-0.1837,-0.1837,0,-0.2421,-0.2379,-0.2336,-0.2273,-0.2257,-0.2233,-0.2183,-0.215,-0.2098,-0.2073,-0.2036,-0.2,-0.1962,-0.1947,-0.1894,-0.19,-0.1875,-0.185,-0.1848,-0.1841,-0.1825,-0.184,-0.1863,-0.1863,-0.1835,-0.1835,-0.1835,0,-0.2459,-0.2392,-0.2357,-0.2333,-0.2259,-0.2244,-0.2212,-0.216,-0.2132,-0.2087,-0.2068,-0.2019,-0.1992,-0.1954,-0.1904,-0.1897,-0.1856,-0.1836,-0.1831,-0.1833,-0.1824,-0.1825,-0.1842,-0.181,-0.181,-0.181,-0.181,0,-0.2469,-0.2444,-0.2373,-0.2352,-0.2322,-0.227,-0.2241,-0.2204,-0.2159,-0.2128,-0.2083,-0.2055,-0.1991,-0.1955,-0.1916,-0.1877,-0.1865,-0.1842,-0.1831,-0.1845,-0.1848,-0.1828,-0.1826,-0.181,-0.181,-0.181,-0.181,0,-0.2506,-0.2458,-0.2417,-0.2351,-0.2333,-0.2314,-0.2256,-0.2232,-0.2194,-0.2155,-0.2143,-0.2081,-0.2036,-0.1983,-0.192,-0.1893,-0.1857,-0.1842,-0.1875,-0.1869,-0.1867,-0.1867,-0.1871,-0.1868,-0.1839,-0.184,-0.184,0,-0.2515,-0.2495,-0.2427,-0.2404,-0.2374,-0.2338,-0.2309,-0.2257,-0.2228,-0.2168,-0.2151,-0.2103,-0.2061,-0.199,-0.1938,-0.1889,-0.1873,-0.1877,-0.1865,-0.1879,-0.1871,-0.1872,-0.1869,-0.188,-0.1881,-0.1881,-0.1882,0,-0.2536,-0.2513,-0.2475,-0.2428,-0.2396,-0.2356,-0.2315,-0.2298,-0.2236,-0.2207,-0.2161,-0.2129,-0.2065,-0.2016,-0.1961,-0.1926,-0.1893,-0.1886,-0.1882,-0.1895,-0.1915,-0.1903,-0.1883,-0.1886,-0.1886,-0.1885,-0.1885,-0.1885,-0.2558,-0.2538,-0.2487,-0.2445,-0.2409,-0.2371,-0.2345,-0.2304,-0.2265,-0.221,-0.2181,-0.2135,-0.2082,-0.2005,-0.1971,-0.1933,-0.1921,-0.1916,-0.1914,-0.1914,-0.1917,-0.1922,-0.1922,-0.1922,-0.1922,-0.1922,-0.1922,0,-0.2575,-0.254,-0.2503,-0.2447,-0.2414,-0.2388,-0.234,-0.2314,-0.2275,-0.2229,-0.219,-0.2136,-0.2089,-0.2034,-0.1983,-0.1963,-0.1946,-0.1951,-0.1951,-0.1943,-0.1931,-0.1939,-0.1965,-0.1965,-0.1965,-0.1965,-0.1965,-0.1965,-0.258,-0.2544,-0.2516,-0.246,-0.2425,-0.2381,-0.2356,-0.232,-0.2283,-0.2226,-0.2188,-0.2153,-0.2102,-0.2047,-0.2002,-0.1987,-0.197,-0.1979,-0.1959,-0.1948,-0.1944,-0.1941,-0.1948,-0.1976,-0.1976,-0.1974,-0.1975,-0.1975]},{"header":{"parameterUnit":"m.s-1","parameterCategory":1,"la1":30.2991,"la2":30.254,"lo1":-89.0895,"lo2":-89.0444,"dy":0.0017,"dx":0.0017,"nx":28,"ny":28,"refTime":"2025-07-05T03:00:00:Z","depth":0,"parameterNumber":3,"parameterNumberName":"V-component_of_WINDS"},"data":[0,0,0,0,0,0,0,0,0,0,0,0,0,0,0,0,0,0,0,0,0,0,0,0,0,0,0,0,0,0,0,0,0,0,0,0,0,0,0,0,0,0,0,0,0,0,0,0,0,0,0,0,0,0,0,0,0,0,-1.3025,-1.3026,0,-1.3111,-1.3112,-1.3113,-1.317,-1.3171,-1.3171,-1.3171,-1.3261,-1.3263,-1.3265,0,0,0,0,0,0,0,0,0,0,0,0,0,-1.2913,-1.2915,-1.3025,-1.3026,-1.3027,-1.311,-1.3112,-1.3113,-1.317,-1.3171,-1.3171,-1.3172,-1.326,-1.3263,-1.3265,0,0,0,0,0,0,0,0,0,0,0,0,0,-1.2976,-1.2915,-1.3025,-1.3065,-1.307,-1.311,-1.3112,-1.3113,-1.317,-1.3171,-1.3171,-1.3172,-1.3259,-1.3262,-1.3265,-1.3272,0,0,-1.3275,-1.3276,0,0,0,0,0,0,0,0,-1.2973,-1.298,-1.3058,-1.3063,-1.3068,-1.313,-1.3105,-1.3167,-1.317,-1.3132,-1.3171,-1.3172,-1.3217,-1.3224,-1.3239,-1.3276,-1.328,-1.3275,-1.3277,-1.3278,-1.3279,0,0,0,0,0,0,0,-1.2968,-1.2977,-1.3059,-1.3059,-1.3065,-1.308,-1.309,-1.3117,-1.317,-1.3135,-1.314,-1.3149,-1.322,-1.3235,-1.3241,-1.3282,-1.3275,-1.3278,-1.3279,-1.3281,-1.333,-1.333,0,0,0,0,0,0,-1.2957,-1.2973,-1.3056,-1.3061,-1.3021,-1.3082,-1.3093,-1.311,-1.317,-1.318,-1.3148,-1.3151,-1.323,-1.3237,-1.3244,-1.3257,-1.3278,-1.3281,-1.3283,-1.3331,-1.333,-1.333,0,0,0,0,0,0,-1.2954,-1.2964,-1.3053,-1.3018,-1.3031,-1.3083,-1.3102,-1.3111,-1.3127,-1.318,-1.319,-1.3154,-1.3231,-1.324,-1.3265,-1.326,-1.3282,-1.3285,-1.3332,-1.3331,-1.333,-1.328,0,0,0,0,0,0,-1.2951,-1.2963,-1.2965,-1.3018,-1.3032,-1.3071,-1.3102,-1.3112,-1.3132,-1.3136,-1.3188,-1.3197,-1.3232,-1.326,-1.3268,-1.3265,-1.3287,-1.3332,-1.3331,-1.333,-1.3283,-1.3278,-1.3274,0,0,0,0,0,-1.2947,-1.2948,-1.2965,-1.2975,-1.3036,-1.307,-1.3079,-1.3118,-1.3131,-1.3134,-1.3169,-1.3196,-1.326,-1.3262,-1.3271,-1.3269,-1.3333,-1.3331,-1.333,-1.3285,-1.3279,-1.3274,0,0,0,0,0,0,-1.2893,-1.2956,-1.2975,-1.2993,-1.3026,-1.308,-1.3085,-1.3111,-1.3141,-1.3144,-1.3192,-1.3203,-1.3223,-1.3249,-1.3251,-1.328,-1.33,-1.33,-1.3262,-1.3257,-1.3253,-1.3245,-1.329,0,0,0,0,0,-1.2884,-1.2905,-1.2959,-1.297,-1.2985,-1.3032,-1.3048,-1.3076,-1.3112,-1.3126,-1.3163,-1.3197,-1.3225,-1.3243,-1.3272,-1.3287,-1.33,-1.3291,-1.3286,-1.3283,-1.3282,-1.3293,-1.329,-1.3326,-1.3326,-1.3326,0,0,-1.2864,-1.2901,-1.2911,-1.296,-1.2989,-1.301,-1.3043,-1.3065,-1.3082,-1.313,-1.3155,-1.3183,-1.3225,-1.3245,-1.3256,-1.3268,-1.3275,-1.3281,-1.3278,-1.328,-1.3292,-1.3288,-1.3285,-1.3325,-1.3326,-1.3326,0,0,-1.2839,-1.2869,-1.2881,-1.2909,-1.2952,-1.2983,-1.2986,-1.3037,-1.3057,-1.3083,-1.312,-1.3141,-1.3188,-1.3217,-1.3238,-1.3225,-1.3251,-1.3233,-1.321,-1.322,-1.3217,-1.3215,-1.321,-1.3208,-1.3233,-1.3232,-1.3232,0,-1.2809,-1.2843,-1.2884,-1.2904,-1.2924,-1.2969,-1.2982,-1.3008,-1.3058,-1.3071,-1.3083,-1.3144,-1.3175,-1.3203,-1.32,-1.3215,-1.3221,-1.3226,-1.3214,-1.3212,-1.3211,-1.3206,-1.3205,-1.323,-1.323,-1.3231,-1.3231,0,-1.2804,-1.2827,-1.2832,-1.2878,-1.29,-1.2916,-1.2961,-1.2978,-1.3004,-1.3034,-1.3061,-1.3101,-1.3138,-1.3147,-1.3173,-1.3179,-1.3185,-1.3205,-1.3226,-1.3204,-1.3201,-1.32,-1.3226,-1.3227,-1.3228,-1.3229,0,0,-1.2746,-1.2816,-1.2817,-1.2839,-1.289,-1.2909,-1.2928,-1.2965,-1.2978,-1.3012,-1.3029,-1.3069,-1.3088,-1.3111,-1.3141,-1.315,-1.3137,-1.3169,-1.3171,-1.3161,-1.3146,-1.313,-1.3127,-1.3155,-1.3155,-1.3155,-1.3142,0,-1.2728,-1.2763,-1.2802,-1.2824,-1.2846,-1.2889,-1.2905,-1.2939,-1.2968,-1.2992,-1.3025,-1.3052,-1.3076,-1.309,-1.3101,-1.3136,-1.3134,-1.3138,-1.3172,-1.3173,-1.3159,-1.3126,-1.3109,-1.3095,-1.3142,-1.3141,-1.3141,0,-1.2712,-1.2742,-1.2766,-1.2815,-1.2826,-1.284,-1.2877,-1.2899,-1.2939,-1.296,-1.2986,-1.3018,-1.3041,-1.306,-1.3093,-1.3094,-1.3111,-1.3131,-1.3131,-1.3135,-1.3155,-1.3128,-1.3091,-1.3089,-1.314,-1.314,-1.314,0,-1.2666,-1.2714,-1.2735,-1.2752,-1.281,-1.2819,-1.2844,-1.2884,-1.2904,-1.2937,-1.295,-1.2985,-1.3005,-1.3032,-1.3072,-1.3083,-1.3101,-1.3124,-1.3119,-1.3118,-1.312,-1.3119,-1.3085,-1.3132,-1.3132,-1.3132,-1.3132,0,-1.2642,-1.2654,-1.2715,-1.2727,-1.2743,-1.2789,-1.2803,-1.2832,-1.2868,-1.2888,-1.2928,-1.2945,-1.2999,-1.3023,-1.3056,-1.3078,-1.3087,-1.3104,-1.3113,-1.31,-1.3098,-1.3111,-1.3113,-1.3132,-1.3132,-1.3132,-1.3132,0,-1.2593,-1.2634,-1.2659,-1.2713,-1.2727,-1.2736,-1.2782,-1.2796,-1.2829,-1.2853,-1.2861,-1.2912,-1.2943,-1.2987,-1.3031,-1.3053,-1.3071,-1.3085,-1.3057,-1.3061,-1.3055,-1.3054,-1.3026,-1.3025,-1.3074,-1.3073,-1.3073,0,-1.2574,-1.2585,-1.2639,-1.2655,-1.2678,-1.2703,-1.2723,-1.2769,-1.2788,-1.2835,-1.2843,-1.2877,-1.2907,-1.2954,-1.2996,-1.303,-1.3045,-1.3033,-1.305,-1.3038,-1.3044,-1.3042,-1.3044,-1.3028,-1.3027,-1.3027,-1.3026,0,-1.2536,-1.2556,-1.2583,-1.2617,-1.264,-1.2669,-1.2701,-1.2711,-1.2764,-1.2784,-1.2816,-1.2839,-1.2884,-1.2917,-1.2958,-1.2985,-1.3014,-1.3021,-1.3022,-1.3008,-1.2991,-1.3,-1.3044,-1.3021,-1.3021,-1.3022,-1.3022,-1.3022,-1.2502,-1.2513,-1.2553,-1.2582,-1.261,-1.2639,-1.2655,-1.2689,-1.2716,-1.2755,-1.2782,-1.2812,-1.2853,-1.291,-1.2936,-1.2961,-1.2973,-1.2974,-1.2974,-1.2974,-1.2969,-1.2988,-1.2969,-1.2969,-1.2969,-1.2969,-1.297,0,-1.2465,-1.2493,-1.2519,-1.2561,-1.2584,-1.261,-1.2646,-1.2664,-1.269,-1.2725,-1.2753,-1.279,-1.2823,-1.2867,-1.2904,-1.2915,-1.293,-1.2923,-1.2922,-1.2928,-1.2957,-1.2952,-1.2911,-1.2911,-1.2911,-1.2911,-1.2911,-1.2911,-1.2448,-1.2469,-1.2493,-1.2529,-1.2558,-1.2587,-1.2605,-1.2633,-1.2661,-1.27,-1.2727,-1.2756,-1.2795,-1.2835,-1.2866,-1.2879,-1.289,-1.2879,-1.2895,-1.2921,-1.2926,-1.2931,-1.2927,-1.2881,-1.2881,-1.2865,-1.2865,-1.2865]}]]